Terminal Aerodrome Forecast
Issued by NWS

Home | Current Version | Previous Version | Text Only | Print | Product List | Glossary On
Versions: 1 2 3 4 5 6 7 8 9 10 11 12 13 14 15 16 17 18 19 20
000
FTUS43 KICT 180900 AAC
TAFCNU
TAF AMD
KCNU 180902Z 1809/1906 08008KT P6SM VCTS BKN030CB
      TEMPO 1809/1812 VRB20G30KT 1 1/2SM +TSRA BKN015CB
     FM181200 08007KT 2SM BR OVC004
     FM181500 07007KT 6SM BR OVC012
     FM181800 09008KT P6SM FEW025=

USA.gov is the U.S. government's official web portal to all federal, state and local government web resources and services.